Haleyville, AL

2:47 PM CDT on July 20, 2017 (GMT -0500)
Haleyville

Weather History for K1M4 - November, 2013

Change the Weather History Date:

Tuesday, November 5, 2013

  Actual Average (KJFX) Record (KJFX)
Temperature  
Mean Temperature 55 °F -  
Max Temperature 64 °F 65 °F 82 °F (2015)
Min Temperature 46 °F 38 °F 18 °F (1991)
Degree Days  
Heating Degree Days 10    
Growing Degree Days 5 (Base 50)    
Moisture  
Dew Point 40 °F    
Average Humidity 59    
Maximum Humidity 66    
Minimum Humidity 45    
Precipitation  
Precipitation 0.00 in - - ()
Sea Level Pressure  
Sea Level Pressure 30.35 in    
Wind  
Wind Speed 7 mph (ESE)    
Max Wind Speed 10 mph    
Max Gust Speed 17 mph    
Visibility 10 miles    
Events Rain    
Averages and records for this station are not official NWS values.
T = Trace of Precipitation, MM = Missing Value Source: NWS Daily Summary

Daily Weather History Graph

Daily Weather History Graph

Search for Another Location

Airport or City:

Trip Planner

Search our weather history database for the weather conditions in past years. The results will help you decide how hot, cold, wet, or windy it might be!

Date:

Astronomy

Nov. 05, 2013 Rise Set
Actual Time 6:14 AM CST 4:53 PM CST
Civil Twilight 5:48 AM CST 5:19 PM CST
Nautical Twilight 5:18 AM CST 5:49 PM CST
Astronomical Twilight 4:48 AM CST 6:18 PM CST
Moon 8:25 AM CST (11/5) 6:58 PM CST (11/5)
Length of Visible Light 11h 31m
Length of Day
10h 39m
Waxing Crescent, 7% of the Moon is Illuminated
Nov 5
Waxing Crescent
Nov 9
First Quarter
Nov 17
Full
Nov 25
Last Quarter
Dec 2
New

Hourly Weather History & Observations

Time (CST) Temp. Dew Point Humidity Pressure Visibility Wind Dir Wind Speed Gust Speed Precip Events Conditions
12:56 AM 50.9 °F 37.9 °F 61% 30.38 in 10.0 mi SE 6.9 mph - N/A   Clear
1:56 AM 50.0 °F 36.9 °F 61% 30.37 in 10.0 mi ESE 6.9 mph - N/A   Clear
2:56 AM 50.0 °F 36.0 °F 59% 30.37 in 10.0 mi Variable 5.8 mph - N/A   Clear
3:56 AM 48.9 °F 34.9 °F 58% 30.37 in 10.0 mi ESE 6.9 mph - N/A   Clear
4:56 AM 46.9 °F 34.9 °F 63% 30.38 in 10.0 mi ESE 6.9 mph - N/A   Clear
5:56 AM 46.9 °F 34.9 °F 63% 30.38 in 10.0 mi Variable 6.9 mph - N/A   Partly Cloudy
6:56 AM 46.9 °F 34.9 °F 63% 30.39 in 10.0 mi ESE 8.1 mph - N/A   Clear
7:56 AM 48.9 °F 36.0 °F 61% 30.42 in 10.0 mi Variable 5.8 mph - N/A   Partly Cloudy
8:56 AM 50.9 °F 36.9 °F 59% 30.42 in 10.0 mi ESE 8.1 mph - N/A   Partly Cloudy
9:56 AM 54.9 °F 37.9 °F 53% 30.43 in 10.0 mi SE 8.1 mph 17.3 mph N/A   Scattered Clouds
10:56 AM 56.8 °F 38.8 °F 51% 30.41 in 10.0 mi ESE 9.2 mph - N/A   Partly Cloudy
11:56 AM 61.0 °F 41.0 °F 48% 30.38 in 10.0 mi Variable 6.9 mph - 0.00 in Rain Light Rain
12:56 PM 63.9 °F 41.9 °F 45% 30.35 in 10.0 mi SE 9.2 mph - 0.00 in   Partly Cloudy
1:56 PM 64.9 °F 43.9 °F 46% 30.32 in 10.0 mi East 9.2 mph - N/A   Partly Cloudy
2:56 PM 63.9 °F 45.0 °F 50% 30.32 in 10.0 mi Variable 6.9 mph - N/A   Clear
3:56 PM 61.9 °F 45.0 °F 54% 30.32 in 10.0 mi Variable 5.8 mph - N/A   Partly Cloudy
4:56 PM 59.0 °F 45.0 °F 60% 30.31 in 10.0 mi ESE 4.6 mph - N/A   Partly Cloudy
5:56 PM 56.8 °F 45.0 °F 64% 30.31 in 10.0 mi ESE 5.8 mph - N/A   Clear
6:56 PM 55.9 °F 43.9 °F 64% 30.31 in 10.0 mi ESE 5.8 mph - N/A   Clear
7:56 PM 55.9 °F 43.9 °F 64% 30.31 in 10.0 mi ESE 6.9 mph - N/A   Clear
8:56 PM 54.9 °F 43.9 °F 66% 30.31 in 10.0 mi ESE 6.9 mph - N/A   Clear
9:56 PM 54.9 °F 43.9 °F 66% 30.31 in 10.0 mi SE 5.8 mph - N/A   Partly Cloudy
10:56 PM 54.9 °F 43.9 °F 66% 30.30 in 10.0 mi SE 10.4 mph - N/A   Clear
11:56 PM 55.9 °F 41.9 °F 59% 30.30 in 10.0 mi SE 6.9 mph - N/A   Partly Cloudy